Probability
0 0 0 0 0 0 0 0 0 0 0 0 0 0 0 0 0 0 0 0 0 0 0 0 0 0 0 0 0 0 0 0 0 0 0 0 0 0
0 0 0 0 0 0 0 0 0 0 0 0 0 0 0 0 0 0 0 0 0 0 0 0 0 0 0 0 0 0 0 0 0 0 0 0 0 0
0 0 0 0 0 0 0 0 0 0 0 0 0 0 0 0 0 0 0 0 0 0 0 0 0 0 0 0 0 0 0 0 0 0 0 0 0 0
0 0 0 0 0 0 0 0 0 0 0 0 0 0 0 0 0 0 0 0 0 0 0 0 0 0 0 0 0 0 0 0 0 0 0 0 0 0
0 0 0 0 0 0 0 0 0 0 0 0 0 0 0 0 0 0 0 0 0 0 0 0 0 0 0 0 0 0 0 0 0 0 0 0 0 0
0 0 0 0 0 0 0 0 0 0 0 0 0 0 0 0 0 0 0 0 0 0 0 0 0 0 0 0 0 0 0 0 0 0 0 0 0 0
0 0 0 0 0 0 0 0 0 0 0 0 0 0 0 0 0 0 0 0 0 0 0 0 0 0 0 0 0 0 0 0 0 0 0 0 0 0
0 0 0 0 0 0 0 0 0 0 0 0 0 0 0 0 0 0 0 0 0 0 0 0 0 0 0 0 0 0 0 0 0 0 0 0 0 0
0 0 0 0 0 0 0 0 0 0 0 0 0 0 0 0 0 0 0 0 0 0 0 0 0 0 0 0 0 0 0 0 0 0 0 0 0 0
0 0 0 0 0 0 0 0 0 0 0 0 0 0 0 0 0 0 0 0 0 0 0 0 0 0 0 0 0 0 0 0 0 0 0 0 0 0
0 0 0 0 0 0 0 0 0 0 0 0 0 0 0 0 0 0 0 0 0 0 0 0 0 0 0 0 0 0 0 0 0 0 0 0 0 0
0 0 0 0 0 0 0 0 0 0 0 0 0 0 0 0 0 0 0 0 0 0 0 0 0 0 0 0 0 0 0 0 0 0 0 0 0 0
0 0 0 0 0 0 0 0 0 0 0 0 0 0 0 0 0 0 0 0 0 0 0 0 0 0 0 0 0 0 0 0 0 0 0 0 0 0
0 0 0 0 0 0 0 0 0 0 0 0 0 0 0 0 0 0 0 0 0 0 0 0 0 0 0 0 0 0 0 0 0 0 0 0 0 0
0 0 0 0 0 0 0 0 0 0 0 0 0 0 0 0 0 0 0 0 0 0 0 0 0 0 0 0 0 0 0 0 0 0 0 0 0 0
0 0 0 0 0 0 0 0 0 0 0 0 0 0 0 0 0 0 0 0 0 0 0 0 0 0 0 0 0 0 0 0 0 0 0 0 0 0
0 0 0 0 0 0 0 0 0 0 0 0 0 0 0 0 0 0 0 0 0 0 0 0 0 0 0 0 0 0 0 0 0 0 0 0 0 0
0 0 0 0 0 0 0 0 0 0 0 0 0 0 0 0 0 0 0 0 0 0 0 0 0 0 0 0 0 0 0 0 0 0 0 0 0 0
0 0 0 0 0 0 0 0 0 0 0 0 0 0 0 0 0 0 0 0 0 0 0 0 0 0 0 0 0 0 0 0 0 0 0 0 0 0
0 0 0 0 0 0 0 0 0 0 0 0 0 0 0 0 0 0 0 0 0 0 0 0 0 0 0 0 0 0 0 0 0 0 0 0 0 0
0 0 0 0 0 0 0 0 0 0 0 0 0 0 0 0 0 0 0 0 0 0 0 0 0 0 0 0 0 0 0 0 0 0 0 0 0 0
0 0 0 0 0 0 0 0 0 0 0 0 0 0 0 0 0 0 0 0 0 0 0 0 0 0 0 0 0 0 0 0 0 0 0 0 0 0
0 0 0 0 0 0 0 0 0 0 0 0 0 0 0 0 0 0 0 0 0 0 0 0 0 0 0 0 0 0 0 0 0 0 0 0 0 0
Wind_Speed
5 5 4 3 3 3 3 4 5 5 4 4 3 4 3 2 2 1 2 4 5 6 7 8 9 9 9 8 8 7 6 6 4 2 1 4 7 8
4 5 4 3 3 3 3 3 4 5 4 1 2 3 4 3 3 2 3 4 5 5 6 7 8 9 10 9 8 8 8 7 6 5 4 3 5 6
5 5 5 4 3 3 3 3 3 4 5 1 1 2 4 4 3 2 2 1 2 5 5 6 7 8 9 10 9 9 8 8 8 8 7 6 6 6
6 6 5 4 5 3 3 3 3 3 3 3 2 3 3 4 4 3 2 1 2 4 5 6 6 7 9 9 10 10 9 9 9 9 9 8 7 7
6 6 6 6 5 4 4 3 2 2 2 2 2 2 2 3 3 2 2 1 1 2 3 4 6 7 8 9 10 10 10 10 9 9 9 8 8 7
5 5 5 5 5 4 4 4 3 3 3 3 2 2 2 3 3 2 2 2 1 1 1 2 4 6 7 8 9 9 9 9 10 10 10 10 9 8
5 5 4 4 3 3 3 3 4 4 3 3 3 3 3 3 4 3 3 2 2 1 1 1 1 1 3 4 6 7 7 8 8 9 9 10 10 9
6 5 5 5 6 6 5 4 3 4 4 4 4 4 4 4 4 4 3 3 3 2 2 2 1 1 1 2 5 5 5 6 7 8 8 8 8 8
6 6 5 5 6 5 6 5 3 1 2 4 5 4 4 4 5 5 4 3 2 2 2 2 2 1 1 2 4 3 4 5 5 6 6 6 6 6
6 7 7 7 6 7 6 5 4 2 1 2 3 2 2 3 4 4 4 3 3 2 2 2 2 2 2 1 4 4 4 4 4 4 4 4 4 4
7 7 7 8 10 11 7 6 5 4 3 2 2 3 4 4 4 4 4 3 3 3 2 2 2 2 2 2 2 4 4 4 3 3 3 3 2 1
6 7 10 9 11 13 8 7 7 5 5 5 5 5 5 5 4 3 3 3 2 3 3 2 2 2 2 2 2 1 1 2 2 2 2 2 2 2
7 7 7 13 13 14 10 7 6 6 6 5 4 4 4 3 3 2 2 2 2 2 3 2 2 2 1 2 2 2 2 2 1 1 0 1 2 3
7 7 7 14 15 14 11 8 9 8 5 5 5 5 4 4 3 3 2 2 2 1 2 2 1 2 2 2 2 2 2 2 2 2 2 2 3 4
7 9 11 14 14 11 12 12 11 7 6 6 5 5 4 4 4 3 3 3 3 2 2 1 2 2 1 2 1 1 2 2 2 2 3 3 3 3
7 10 13 14 11 9 10 10 8 7 7 6 5 4 5 5 4 4 4 4 3 3 3 2 2 2 2 3 3 3 3 2 2 3 3 4 4 5
8 6 7 8 9 8 8 8 8 8 7 6 5 5 5 5 5 5 4 4 4 3 4 4 4 3 3 3 4 5 5 4 3 3 3 4 5 5
11 8 9 9 10 10 9 9 9 8 8 7 6 6 6 6 6 5 5 5 5 4 4 4 4 3 3 6 9 6 4 4 3 3 4 4 5 5
11 9 9 10 9 9 9 9 9 8 7 7 7 7 6 6 6 6 6 6 6 5 5 5 5 4 4 3 5 8 5 3 3 4 4 5 5 5
9 9 10 9 9 9 9 9 8 8 8 8 8 7 7 7 7 7 7 8 6 6 5 6 6 7 6 3 1 3 8 6 4 4 4 5 6 8
10 10 9 9 9 9 9 8 9 8 9 8 8 9 8 8 8 8 7 10 8 7 7 7 6 7 3 1 3 4 5 10 9 5 4 4 5 5
10 10 9 9 9 9 9 9 9 9 9 9 8 8 8 8 9 9 8 8 8 7 7 4 5 6 5 6 6 5 4 4 8 13 14 11 6 4
9 9 9 9 9 9 9 10 10 9 9 9 9 9 9 9 8 8 8 8 7 7 7 6 6 6 6 6 6 6 7 6 6 6 8 14 20 23
Wind_Direction
197 203 209 210 217 227 238 243 249 253 238 194 174 170 163 150 132 96 73 60 55 47 40 32 25 20 17 19 17 13 5 360 3 0 179 187 192 190
190 197 202 201 205 211 224 233 243 257 260 148 169 159 164 155 144 123 85 74 59 50 45 37 30 27 26 26 26 27 26 28 38 45 61 133 158 165
191 200 203 201 207 211 214 222 229 237 250 200 134 152 168 166 154 137 99 66 66 52 45 40 36 31 28 30 31 31 32 39 49 53 59 84 106 115
194 196 200 198 208 208 213 217 219 223 245 225 163 163 173 171 158 146 114 76 59 55 46 43 39 35 32 35 38 40 42 50 56 59 60 71 85 97
198 200 200 199 201 198 205 211 213 216 231 226 172 148 145 157 154 145 135 106 77 58 55 48 45 40 37 39 43 44 46 53 60 61 61 65 73 84
197 200 199 202 203 198 202 207 210 213 212 209 185 162 154 158 171 174 179 169 157 72 73 50 52 50 47 46 44 43 46 52 59 64 66 65 67 73
189 191 189 186 189 196 201 203 206 212 206 205 196 174 173 175 189 178 179 163 161 190 194 122 84 69 53 49 49 44 46 53 59 64 68 70 70 71
187 182 174 175 179 184 187 196 212 219 211 207 209 207 197 189 170 172 164 180 191 168 215 162 173 125 56 40 37 44 54 61 66 68 70 71 72 73
186 180 179 179 179 176 166 159 157 141 253 239 228 217 198 189 176 178 183 201 182 128 213 178 172 165 94 47 32 58 73 75 73 72 72 72 72 73
191 189 186 181 182 177 174 173 171 163 184 233 243 224 193 166 176 181 166 149 123 137 235 207 176 173 140 97 48 65 86 83 78 73 72 72 73 73
193 195 195 191 185 185 183 182 183 168 130 107 87 109 119 136 149 145 156 171 184 166 185 217 168 174 179 169 90 53 67 71 72 67 60 62 63 62
192 196 203 200 190 190 193 193 198 187 170 155 144 137 141 143 160 184 175 183 182 172 167 192 167 174 189 174 178 181 165 107 69 42 32 28 349 279
193 195 198 200 201 198 201 206 202 185 180 176 170 162 157 155 158 153 150 172 181 170 146 159 166 177 194 181 187 195 222 222 215 198 39 1 330 299
198 197 196 197 202 200 199 199 189 183 183 185 187 186 182 172 156 143 126 102 79 94 124 136 155 175 182 198 191 184 207 222 241 250 251 258 257 268
201 196 191 194 198 202 203 195 190 190 189 195 197 193 179 159 146 140 134 126 120 115 124 138 169 169 213 232 218 207 222 218 227 244 244 245 251 255
196 194 194 196 198 200 195 197 199 197 197 202 196 182 163 162 175 174 176 176 181 170 151 161 185 191 214 230 242 243 232 240 221 227 251 259 256 247
174 174 182 185 194 196 198 198 195 194 202 201 191 183 180 181 183 181 183 186 200 189 175 171 181 206 242 249 241 239 239 238 237 235 248 259 249 243
177 183 190 194 197 196 196 197 198 199 198 194 193 192 190 189 186 181 188 199 207 205 193 176 174 193 218 231 221 244 246 242 235 223 236 257 262 246
194 195 197 198 199 199 199 199 199 197 192 193 195 194 192 192 192 191 194 202 210 209 199 185 188 200 225 243 187 207 233 227 224 230 233 246 267 271
201 201 201 200 199 199 200 200 198 193 192 196 195 194 193 194 197 198 199 203 205 204 202 197 202 206 217 249 260 196 214 230 236 247 254 260 268 270
200 202 202 200 199 199 198 197 196 195 193 193 195 195 194 195 200 202 202 203 205 206 211 212 209 198 194 200 244 240 217 219 231 245 258 272 278 269
202 202 202 199 197 197 196 194 195 196 195 197 196 194 193 196 201 201 201 201 204 209 215 200 156 169 188 213 234 243 236 223 232 241 245 242 247 254
204 202 201 199 198 194 193 195 196 197 197 195 196 194 193 195 199 200 201 203 204 202 200 191 182 192 206 219 235 245 251 249 251 250 245 239 242 252